WA4BPS Weather Reports


Display with metric or nautical units.
time (UTC)temp
F
wind
direction
speed
MPH
gust
MPH
rain 1hr
in
rain 24hr
in
rain mn
in
humidity
%
barometer
mb
20260502170437 60 332 7.0 14.0 0.00 0.00 0.00 40 1012.8
20260502170336 60 357 10.0 14.0 0.00 0.00 0.00 38 1012.8
20260502170234 60 296 7.0 13.0 0.00 0.00 0.00 37 1012.8
20260502170206 60 185 6.0 13.0 0.00 0.00 0.00 37 1012.8
20260502164328 59 164 8.0 14.0 0.00 0.00 0.00 39 1013.2
20260502164246 59 240 8.0 14.0 0.00 0.00 0.00 40 1013.2
20260502164143 59 360 8.0 14.0 0.00 0.00 0.00 40 1013.2
20260502164043 59 336 8.0 14.0 0.00 0.00 0.00 40 1013.2
20260502164001 59 330 9.0 14.0 0.00 0.00 0.00 42 1013.2
20260502163839 59 254 7.0 14.0 0.00 0.00 0.00 42 1013.2
20260502163737 59 319 3.0 14.0 0.00 0.00 0.00 43 1013.2
20260502163639 59 203 4.0 14.0 0.00 0.00 0.00 43 1013.2
20260502163558 59 328 7.0 14.0 0.00 0.00 0.00 41 1013.2
20260502163434 59 147 9.0 14.0 0.00 0.00 0.00 40 1013.2
20260502163332 59 335 4.0 14.0 0.00 0.00 0.00 40 1013.2
20260502163231 59 143 6.0 18.0 0.00 0.00 0.00 41 1013.2
20260502163200 59 298 7.0 18.0 0.00 0.00 0.00 39 1013.2
20260502163036 58 138 9.0 18.0 0.00 0.00 0.00 38 1013.2
20260502162935 58 193 9.0 18.0 0.00 0.00 0.00 41 1013.2
20260502162838 58 320 7.0 18.0 0.00 0.00 0.00 41 1013.2
20260502162736 58 333 8.0 18.0 0.00 0.00 0.00 41 1013.2
20260502162633 58 110 5.0 18.0 0.00 0.00 0.00 42 1013.2
20260502162534 58 110 4.0 18.0 0.00 0.00 0.00 41 1013.2
20260502162437 58 75 12.0 18.0 0.00 0.00 0.00 38 1013.2
20260502162355 58 253 11.0 18.0 0.00 0.00 0.00 38 1013.2
20260502162254 58 257 11.0 18.0 0.00 0.00 0.00 38 1013.2
20260502162134 58 189 5.0 18.0 0.00 0.00 0.00 43 1013.2
20260502162033 58 330 4.0 18.0 0.00 0.00 0.00 42 1013.2
20260502161932 58 359 4.0 18.0 0.00 0.00 0.00 40 1013.2
20260502161849 58 158 5.0 18.0 0.00 0.00 0.00 40 1013.2
20260502161728 57 353 10.0 18.0 0.00 0.00 0.00 41 1013.2
20260502161658 57 343 12.0 18.0 0.00 0.00 0.00 41 1013.2
20260502161535 57 330 6.0 16.0 0.00 0.00 0.00 46 1013.2
20260502161434 57 330 8.0 17.0 0.00 0.00 0.00 44 1013.2
20260502161336 57 329 9.0 17.0 0.00 0.00 0.00 45 1013.2
20260502161237 57 342 6.0 17.0 0.00 0.00 0.00 43 1013.2
20260502161156 57 332 9.0 17.0 0.00 0.00 0.00 47 1013.2
20260502161033 57 343 6.0 17.0 0.00 0.00 0.00 45 1013.2
20260502160932 57 349 6.0 17.0 0.00 0.00 0.00 45 1013.2
20260502160829 57 76 5.0 17.0 0.00 0.00 0.00 45 1013.2
20260502160728 57 340 9.0 17.0 0.00 0.00 0.00 45 1013.2
20260502160631 57 336 8.0 17.0 0.00 0.00 0.00 45 1013.2
20260502160530 57 13 9.0 17.0 0.00 0.00 0.00 47 1013.2
20260502160428 57 191 9.0 17.0 0.00 0.00 0.00 47 1013.2
20260502160326 57 44 11.0 17.0 0.00 0.00 0.00 47 1013.2
20260502160244 57 333 6.0 17.0 0.00 0.00 0.00 47 1013.2
20260502160214 57 335 6.0 17.0 0.00 0.00 0.00 47 1013.2
20260502152330 56 119 8.0 18.0 0.00 0.00 0.00 45 1012.8
20260502152229 56 154 6.0 18.0 0.00 0.00 0.00 44 1012.8
20260502152147 56 256 5.0 18.0 0.00 0.00 0.00 46 1012.8
20260502152028 56 90 4.0 18.0 0.00 0.00 0.00 47 1012.8
20260502151947 56 337 10.0 18.0 0.00 0.00 0.00 47 1012.8
20260502151829 56 120 10.0 18.0 0.00 0.00 0.00 46 1012.8
20260502151758 56 332 9.0 18.0 0.00 0.00 0.00 47 1012.8
20260502151647 56 176 12.0 18.0 0.00 0.00 0.00 45 1012.8
20260502151522 56 280 6.0 18.0 0.00 0.00 0.00 50 1012.8
20260502151443 56 330 5.0 18.0 0.00 0.00 0.00 47 1012.8
20260502151341 55 184 7.0 20.0 0.00 0.00 0.00 47 1012.7
20260502151240 55 332 5.0 20.0 0.00 0.00 0.00 46 1012.7
20260502151159 55 335 4.0 20.0 0.00 0.00 0.00 49 1012.7
20260502151040 55 30 4.0 20.0 0.00 0.00 0.00 50 1012.7
20260502151000 55 82 3.0 20.0 0.00 0.00 0.00 49 1012.7
20260502150838 55 161 7.0 20.0 0.00 0.00 0.00 50 1012.7
20260502150755 55 335 11.0 20.0 0.00 0.00 0.00 52 1012.7
20260502150633 55 337 4.0 20.0 0.00 0.00 0.00 50 1012.7
20260502150531 55 271 11.0 20.0 0.00 0.00 0.00 50 1012.7
20260502150428 55 332 7.0 14.0 0.00 0.00 0.00 52 1012.7
20260502150347 55 360 2.0 14.0 0.00 0.00 0.00 50 1012.7
20260502150309 55 347 8.0 14.0 0.00 0.00 0.00 50 1012.7
20260502150219 55 292 9.0 14.0 0.00 0.00 0.00 50 1012.7
20260502130742 48 251 9.0 17.0 0.00 0.00 0.00 69 1012.2
20260502130644 48 271 8.0 17.0 0.00 0.00 0.00 69 1012.2
20260502130602 48 239 8.0 17.0 0.00 0.00 0.00 68 1012.2
20260502130459 48 89 10.0 17.0 0.00 0.00 0.00 69 1012.2
20260502130337 48 199 7.0 13.0 0.00 0.00 0.00 70 1012.2
20260502130256 48 257 6.0 13.0 0.00 0.00 0.00 70 1012.2
20260502130226 48 209 8.0 13.0 0.00 0.00 0.00 70 1012.2
20260502123738 47 325 6.0 11.0 0.00 0.00 0.00 71 1012.0
20260502123636 47 110 6.0 10.0 0.00 0.00 0.00 71 1012.0
20260502123536 47 295 5.0 10.0 0.00 0.00 0.00 71 1012.0
20260502123438 47 272 6.0 11.0 0.00 0.00 0.00 71 1012.0
20260502123336 47 239 4.0 11.0 0.00 0.00 0.00 71 1012.0
20260502123235 47 88 5.0 11.0 0.00 0.00 0.00 71 1012.0
20260502123204 47 323 6.0 11.0 0.00 0.00 0.00 71 1012.0
20260502123041 47 258 4.0 11.0 0.00 0.00 0.00 71 1012.0
20260502122939 47 264 5.0 11.0 0.00 0.00 0.00 71 1012.0
20260502122840 47 215 5.0 11.0 0.00 0.00 0.00 71 1011.8
20260502122759 47 335 4.0 11.0 0.00 0.00 0.00 70 1011.8
20260502122640 47 75 7.0 11.0 0.00 0.00 0.00 70 1011.8
20260502122538 47 92 10.0 11.0 0.00 0.00 0.00 71 1011.8
20260502122457 47 134 7.0 11.0 0.00 0.00 0.00 71 1011.8
20260502122353 47 96 4.0 10.0 0.00 0.00 0.00 71 1011.8
20260502122231 47 147 4.0 10.0 0.00 0.00 0.00 71 1011.8
20260502122129 47 332 3.0 10.0 0.00 0.00 0.00 72 1011.8
20260502122048 47 192 1.0 10.0 0.00 0.00 0.00 72 1011.8
20260502121945 47 329 3.0 10.0 0.00 0.00 0.00 72 1011.8
20260502121902 47 342 4.0 10.0 0.00 0.00 0.00 72 1011.8
20260502121724 47 330 5.0 10.0 0.00 0.00 0.00 72 1011.8
20260502121654 47 182 6.0 10.0 0.00 0.00 0.00 72 1011.8
20260502121531 47 258 3.0 13.0 0.00 0.00 0.00 72 1011.8
20260502121448 47 328 3.0 13.0 0.00 0.00 0.00 72 1011.8
20260502121347 47 335 3.0 13.0 0.00 0.00 0.00 71 1011.5
20260502121304 47 256 2.0 13.0 0.00 0.00 0.00 71 1011.5
20260502121142 47 110 3.0 13.0 0.00 0.00 0.00 71 1011.5
20260502121040 47 330 5.0 13.0 0.00 0.00 0.00 70 1011.5
20260502120943 47 119 5.0 13.0 0.00 0.00 0.00 71 1011.5
20260502120901 47 172 4.0 13.0 0.00 0.00 0.00 70 1011.5
20260502120738 47 210 7.0 13.0 0.00 0.00 0.00 70 1011.5
20260502120636 47 274 4.0 10.0 0.00 0.00 0.00 70 1011.5
20260502120535 47 316 5.0 10.0 0.00 0.00 0.00 71 1011.5
20260502120432 47 328 5.0 10.0 0.00 0.00 0.00 71 1011.5
20260502120352 47 123 8.0 10.0 0.00 0.00 0.00 71 1011.5
20260502120240 47 191 7.0 9.0 0.00 0.00 0.00 71 1011.5
20260502120153 47 319 3.0 9.0 0.00 0.00 0.00 71 1011.5
20260502115929 47 227 4.0 9.0 0.00 0.00 0.00 71 1011.5
20260502115828 47 330 5.0 9.0 0.00 0.00 0.00 71 1011.5
20260502115745 47 328 4.0 10.0 0.00 0.00 0.00 71 1011.5
20260502115643 47 172 4.0 10.0 0.00 0.00 0.00 71 1011.5
20260502115601 47 186 4.0 10.0 0.00 0.00 0.00 70 1011.5
20260502115458 47 332 4.0 10.0 0.00 0.00 0.00 70 1011.5
20260502115335 47 289 4.0 10.0 0.00 0.00 0.00 70 1011.5
20260502115236 47 75 3.0 10.0 0.00 0.00 0.00 71 1011.5
20260502115135 47 116 3.0 11.0 0.00 0.00 0.00 70 1011.5
20260502115033 47 192 5.0 11.0 0.00 0.00 0.00 70 1011.5
20260502114931 47 90 5.0 11.0 0.00 0.00 0.00 70 1011.5
20260502114832 47 353 2.0 11.0 0.00 0.00 0.00 70 1011.5
20260502114749 47 239 3.0 11.0 0.00 0.00 0.00 70 1011.5
20260502114657 47 202 3.0 11.0 0.00 0.00 0.00 70 1011.5
20260502114539 47 215 3.0 11.0 0.00 0.00 0.00 69 1011.5
20260502114457 47 127 5.0 11.0 0.00 0.00 0.00 69 1011.5
20260502114335 47 330 7.0 11.0 0.00 0.00 0.00 70 1011.4
20260502114234 47 329 4.0 10.0 0.00 0.00 0.00 69 1011.4
20260502114133 47 157 4.0 10.0 0.00 0.00 0.00 69 1011.4
20260502114031 47 209 2.0 10.0 0.00 0.00 0.00 69 1011.4
20260502113928 47 61 6.0 10.0 0.00 0.00 0.00 69 1011.4
20260502113847 47 172 6.0 10.0 0.00 0.00 0.00 69 1011.4
20260502113728 47 292 3.0 10.0 0.00 0.00 0.00 69 1011.4
20260502113631 47 234 4.0 10.0 0.00 0.00 0.00 69 1011.4
20260502113528 47 73 6.0 10.0 0.00 0.00 0.00 69 1011.4
20260502113446 47 184 6.0 10.0 0.00 0.00 0.00 68 1011.4
20260502113404 47 328 5.0 8.0 0.00 0.00 0.00 68 1011.4
20260502113242 47 294 5.0 8.0 0.00 0.00 0.00 68 1011.4
20260502113151 47 133 4.0 8.0 0.00 0.00 0.00 68 1011.4
20260502113028 47 330 4.0 8.0 0.00 0.00 0.00 68 1011.4
20260502112931 47 123 3.0 8.0 0.00 0.00 0.00 68 1011.4
20260502112830 47 199 5.0 8.0 0.00 0.00 0.00 68 1011.3
20260502112728 47 323 3.0 8.0 0.00 0.00 0.00 68 1011.3
20260502112626 47 308 5.0 8.0 0.00 0.00 0.00 68 1011.3
20260502112543 47 295 5.0 8.0 0.00 0.00 0.00 68 1011.3
20260502112441 47 109 5.0 8.0 0.00 0.00 0.00 68 1011.3
20260502112400 47 144 6.0 8.0 0.00 0.00 0.00 68 1011.3
20260502112237 47 333 5.0 8.0 0.00 0.00 0.00 68 1011.3
20260502112141 47 244 4.0 8.0 0.00 0.00 0.00 68 1011.3
20260502112036 47 241 5.0 8.0 0.00 0.00 0.00 68 1011.3
20260502111935 47 267 1.0 7.0 0.00 0.00 0.00 69 1011.3
20260502111833 47 311 4.0 7.0 0.00 0.00 0.00 69 1011.3
20260502111753 47 281 3.0 7.0 0.00 0.00 0.00 68 1011.3
20260502111722 47 130 2.0 7.0 0.00 0.00 0.00 68 1011.3
20260502111538 47 114 1.0 7.0 0.00 0.00 0.00 68 1011.3
20260502111437 47 42 1.0 7.0 0.00 0.00 0.00 68 1011.3
20260502111341 47 133 3.0 7.0 0.00 0.00 0.00 67 1010.9
20260502111239 47 330 3.0 7.0 0.00 0.00 0.00 67 1010.9
20260502111138 47 158 5.0 7.0 0.00 0.00 0.00 67 1010.9
20260502111037 47 191 4.0 7.0 0.00 0.00 0.00 68 1010.9
20260502110956 47 325 5.0 7.0 0.00 0.00 0.00 68 1010.9
20260502110833 47 230 3.0 7.0 0.00 0.00 0.00 67 1010.9
20260502110731 47 309 5.0 7.0 0.00 0.00 0.00 67 1010.9
20260502110633 47 254 2.0 7.0 0.00 0.00 0.00 67 1010.9
20260502110532 47 325 3.0 7.0 0.00 0.00 0.00 67 1010.9
20260502110429 48 301 5.0 7.0 0.00 0.00 0.00 66 1010.9
20260502110349 48 86 1.0 7.0 0.00 0.00 0.00 66 1010.9
20260502110246 48 191 3.0 7.0 0.00 0.00 0.00 66 1010.9
20260502110218 48 208 5.0 7.0 0.00 0.00 0.00 66 1010.9
20260502110054 48 100 5.0 7.0 0.00 0.00 0.00 66 1010.9
20260502105931 48 299 5.0 7.0 0.00 0.00 0.00 66 1010.9
20260502105851 48 79 2.0 7.0 0.00 0.00 0.00 66 1010.6
20260502105753 48 329 4.0 7.0 0.00 0.00 0.00 65 1010.6
20260502105630 48 299 6.0 7.0 0.00 0.00 0.00 65 1010.6
20260502105528 48 333 5.0 7.0 0.00 0.00 0.00 65 1010.6
20260502105426 48 315 1.0 7.0 0.00 0.00 0.00 65 1010.6
20260502105324 48 126 3.0 7.0 0.00 0.00 0.00 65 1010.6
20260502105243 48 244 4.0 8.0 0.00 0.00 0.00 65 1010.6
20260502105141 48 248 2.0 8.0 0.00 0.00 0.00 66 1010.6
20260502105043 48 304 2.0 13.0 0.00 0.00 0.00 65 1010.6
20260502104942 48 308 4.0 13.0 0.00 0.00 0.00 65 1010.6
20260502104840 48 349 5.0 13.0 0.00 0.00 0.00 65 1010.6
20260502104739 48 318 4.0 13.0 0.00 0.00 0.00 65 1010.6
20260502104709 48 131 3.0 13.0 0.00 0.00 0.00 65 1010.6
20260502104524 48 137 4.0 13.0 0.00 0.00 0.00 65 1010.6
20260502104443 48 174 5.0 13.0 0.00 0.00 0.00 65 1010.6
20260502104340 48 299 6.0 13.0 0.00 0.00 0.00 65 1010.6
20260502104300 48 95 7.0 13.0 0.00 0.00 0.00 64 1010.6
20260502104137 48 234 10.0 13.0 0.00 0.00 0.00 65 1010.6
20260502104054 48 332 7.0 13.0 0.00 0.00 0.00 65 1010.6
20260502103935 48 254 7.0 13.0 0.00 0.00 0.00 65 1010.6
20260502103833 48 152 9.0 13.0 0.00 0.00 0.00 65 1010.6
20260502103731 48 244 10.0 13.0 0.00 0.00 0.00 65 1010.6
20260502103630 48 138 7.0 12.0 0.00 0.00 0.00 65 1010.6
20260502103533 48 278 4.0 12.0 0.00 0.00 0.00 65 1010.6
20260502103431 48 325 6.0 12.0 0.00 0.00 0.00 65 1010.6
20260502103330 48 113 5.0 12.0 0.00 0.00 0.00 65 1010.6
20260502103239 48 280 8.0 12.0 0.00 0.00 0.00 65 1010.6
20260502103151 48 296 7.0 12.0 0.00 0.00 0.00 65 1010.6
20260502103027 48 296 8.0 12.0 0.00 0.00 0.00 66 1010.6
20260502102945 48 137 7.0 12.0 0.00 0.00 0.00 65 1010.6
20260502102842 48 270 6.0 12.0 0.00 0.00 0.00 65 1010.6
20260502102741 48 278 6.0 12.0 0.00 0.00 0.00 65 1010.6
20260502102703 48 296 6.0 12.0 0.00 0.00 0.00 65 1010.6
20260502102541 48 192 6.0 12.0 0.00 0.00 0.00 63 1010.6
20260502102459 48 309 6.0 12.0 0.00 0.00 0.00 63 1010.6
20260502102337 48 332 6.0 12.0 0.00 0.00 0.00 63 1010.6
20260502102236 48 202 7.0 12.0 0.00 0.00 0.00 63 1010.6
20260502102133 48 52 9.0 16.0 0.00 0.00 0.00 63 1010.6
20260502102032 48 333 5.0 16.0 0.00 0.00 0.00 64 1010.6
20260502101935 48 305 6.0 16.0 0.00 0.00 0.00 64 1010.6
20260502101834 48 147 5.0 16.0 0.00 0.00 0.00 64 1010.6
20260502101754 48 158 4.0 16.0 0.00 0.00 0.00 64 1010.6
20260502101540 48 267 8.0 16.0 0.00 0.00 0.00 62 1010.6
20260502101438 48 277 8.0 16.0 0.00 0.00 0.00 63 1010.6
20260502101336 48 236 9.0 16.0 0.00 0.00 0.00 64 1010.1
20260502101235 48 318 4.0 13.0 0.00 0.00 0.00 64 1010.1
20260502101154 48 158 4.0 13.0 0.00 0.00 0.00 62 1010.1
20260502101034 48 340 9.0 13.0 0.00 0.00 0.00 63 1010.1
20260502100954 48 72 7.0 13.0 0.00 0.00 0.00 62 1010.1
20260502100853 48 234 7.0 13.0 0.00 0.00 0.00 62 1010.1
20260502100730 48 275 8.0 13.0 0.00 0.00 0.00 62 1010.1
20260502100631 48 284 8.0 12.0 0.00 0.00 0.00 63 1010.1
20260502100529 48 222 7.0 14.0 0.00 0.00 0.00 62 1010.1
20260502100448 49 205 10.0 16.0 0.00 0.00 0.00 63 1010.1
20260502100326 49 295 2.0 16.0 0.00 0.00 0.00 62 1010.1
20260502100245 49 198 6.0 16.0 0.00 0.00 0.00 62 1010.1
20260502100218 49 264 4.0 16.0 0.00 0.00 0.00 63 1010.1
20260502091438 49 202 13.0 16.0 0.00 0.00 0.00 61 1010.4
20260502091339 49 264 9.0 16.0 0.00 0.00 0.00 60 1010.5
20260502091242 49 329 10.0 17.0 0.00 0.00 0.00 60 1010.5
20260502091142 49 294 8.0 17.0 0.00 0.00 0.00 60 1010.5
20260502091100 49 85 10.0 17.0 0.00 0.00 0.00 59 1010.5
20260502090939 49 336 12.0 17.0 0.00 0.00 0.00 59 1010.5
20260502090837 49 171 12.0 17.0 0.00 0.00 0.00 60 1010.5
20260502090735 49 318 11.0 17.0 0.00 0.00 0.00 60 1010.5
20260502090633 49 260 8.0 17.0 0.00 0.00 0.00 61 1010.5
20260502090535 49 261 6.0 17.0 0.00 0.00 0.00 60 1010.5
20260502090434 49 217 9.0 17.0 0.00 0.00 0.00 59 1010.5
20260502090331 49 329 12.0 17.0 0.00 0.00 0.00 59 1010.5
20260502090242 49 215 11.0 17.0 0.00 0.00 0.00 58 1010.5
20260502090151 49 237 10.0 17.0 0.00 0.00 0.00 59 1010.5
20260502071444 51 329 8.0 19.0 0.00 0.00 0.00 56 1010.6
20260502071341 51 304 7.0 19.0 0.00 0.00 0.00 57 1011.4
20260502071238 51 285 9.0 19.0 0.00 0.00 0.00 56 1011.4
20260502071141 51 199 13.0 19.0 0.00 0.00 0.00 56 1011.4
20260502071040 51 299 9.0 17.0 0.00 0.00 0.00 56 1011.4
20260502070939 51 329 8.0 17.0 0.00 0.00 0.00 56 1011.4
20260502070837 51 220 8.0 17.0 0.00 0.00 0.00 56 1011.4
20260502070735 51 200 9.0 17.0 0.00 0.00 0.00 56 1011.4
20260502070633 51 305 9.0 19.0 0.00 0.00 0.00 55 1011.4
20260502070552 51 186 11.0 19.0 0.00 0.00 0.00 54 1011.4
20260502070432 51 328 13.0 19.0 0.00 0.00 0.00 54 1011.4
20260502070331 51 155 11.0 19.0 0.00 0.00 0.00 54 1011.4
20260502070250 51 237 10.0 19.0 0.00 0.00 0.00 54 1011.4
20260502070200 51 289 9.0 19.0 0.00 0.00 0.00 55 1011.4
20260502070040 51 319 10.0 19.0 0.00 0.00 0.00 55 1011.4
20260502065938 51 319 10.0 19.0 0.00 0.00 0.00 55 1011.4
20260502065837 51 227 12.0 19.0 0.00 0.00 0.00 55 1011.3
20260502065739 51 284 11.0 17.0 0.00 0.00 0.00 55 1011.3
20260502065656 51 301 11.0 17.0 0.00 0.00 0.00 54 1011.3
20260502065533 51 219 9.0 17.0 0.00 0.00 0.00 54 1011.3
20260502065431 51 311 7.0 17.0 0.00 0.00 0.00 55 1011.3
20260502065329 51 174 5.0 17.0 0.00 0.00 0.00 54 1011.3
20260502065228 51 332 12.0 17.0 0.00 0.00 0.00 54 1011.3
20260502065150 51 73 12.0 17.0 0.00 0.00 0.00 53 1011.3
20260502065047 51 315 11.0 19.0 0.00 0.00 0.00 54 1011.3
20260502064929 51 305 9.0 19.0 0.00 0.00 0.00 53 1011.3
20260502064826 51 209 9.0 19.0 0.00 0.00 0.00 54 1011.3
20260502064735 51 128 11.0 19.0 0.00 0.00 0.00 53 1011.3
20260502064645 51 308 10.0 19.0 0.00 0.00 0.00 54 1011.3
20260502064542 51 168 11.0 19.0 0.00 0.00 0.00 54 1011.3
20260502064441 51 339 10.0 19.0 0.00 0.00 0.00 55 1011.3
20260502064338 51 54 5.0 19.0 0.00 0.00 0.00 54 1011.4
20260502064235 51 308 12.0 19.0 0.00 0.00 0.00 55 1011.4
20260502064140 51 309 10.0 19.0 0.00 0.00 0.00 55 1011.4
20260502064039 51 309 10.0 19.0 0.00 0.00 0.00 55 1011.4
20260502063937 51 282 11.0 18.0 0.00 0.00 0.00 55 1011.4
20260502063834 51 292 8.0 19.0 0.00 0.00 0.00 54 1011.4
20260502063734 51 332 8.0 19.0 0.00 0.00 0.00 53 1011.4
20260502063652 51 330 13.0 19.0 0.00 0.00 0.00 54 1011.4
20260502063530 51 253 12.0 19.0 0.00 0.00 0.00 54 1011.4
20260502063432 51 200 12.0 19.0 0.00 0.00 0.00 53 1011.4
20260502063349 51 313 8.0 19.0 0.00 0.00 0.00 54 1011.4
20260502063228 51 184 10.0 19.0 0.00 0.00 0.00 53 1011.4
20260502063158 51 289 9.0 19.0 0.00 0.00 0.00 52 1011.4
20260502063035 51 247 12.0 19.0 0.00 0.00 0.00 52 1011.4
20260502062932 51 271 11.0 19.0 0.00 0.00 0.00 52 1011.4
20260502062830 51 209 9.0 17.0 0.00 0.00 0.00 52 1011.6
20260502062734 51 328 10.0 17.0 0.00 0.00 0.00 53 1011.6
20260502062633 51 243 10.0 20.0 0.00 0.00 0.00 53 1011.6
20260502062530 51 246 12.0 20.0 0.00 0.00 0.00 53 1011.6
20260502062448 51 274 8.0 20.0 0.00 0.00 0.00 53 1011.6
20260502062328 51 250 9.0 20.0 0.00 0.00 0.00 52 1011.6
20260502062225 51 330 11.0 20.0 0.00 0.00 0.00 52 1011.6
20260502062146 51 127 12.0 20.0 0.00 0.00 0.00 52 1011.6
20260502062104 51 359 13.0 20.0 0.00 0.00 0.00 51 1011.6
20260502061940 52 143 13.0 20.0 0.00 0.00 0.00 51 1011.6
20260502061858 52 232 14.0 20.0 0.00 0.00 0.00 51 1011.6
20260502061739 52 265 16.0 20.0 0.00 0.00 0.00 52 1011.6
20260502061710 52 246 13.0 19.0 0.00 0.00 0.00 52 1011.6
20260502061526 52 181 9.0 18.0 0.00 0.00 0.00 51 1011.6
20260502061423 52 330 9.0 18.0 0.00 0.00 0.00 51 1011.6
20260502061326 52 199 13.0 18.0 0.00 0.00 0.00 51 1011.4
20260502061243 52 167 8.0 17.0 0.00 0.00 0.00 52 1011.4
20260502061202 52 73 7.0 17.0 0.00 0.00 0.00 52 1011.4
20260502061042 52 136 8.0 17.0 0.00 0.00 0.00 50 1011.4
20260502060943 52 270 8.0 19.0 0.00 0.00 0.00 52 1011.4
20260502060842 52 175 11.0 19.0 0.00 0.00 0.00 50 1011.4
20260502060740 52 244 13.0 19.0 0.00 0.00 0.00 51 1011.4
20260502060639 52 287 9.0 20.0 0.00 0.00 0.00 51 1011.4
20260502060537 52 329 10.0 20.0 0.00 0.00 0.00 52 1011.4
20260502060456 52 232 12.0 20.0 0.00 0.00 0.00 51 1011.4
20260502060333 52 270 12.0 20.0 0.00 0.00 0.00 50 1011.4
20260502060304 52 109 12.0 20.0 0.00 0.00 0.00 50 1011.4
20260502060156 52 289 13.0 20.0 0.00 0.00 0.00 50 1011.4
20260502060036 52 224 8.0 20.0 0.00 0.00 0.00 50 1011.4
20260502055934 52 253 8.0 20.0 0.00 0.00 0.00 50 1011.4
20260502055851 52 244 9.0 20.0 0.00 0.00 0.00 50 1011.2
20260502055729 52 330 12.0 20.0 0.00 0.00 0.00 50 1011.2
20260502055628 52 301 7.0 18.0 0.00 0.00 0.00 50 1011.2
20260502055547 52 333 10.0 18.0 0.00 0.00 0.00 49 1011.2
20260502055447 52 274 12.0 18.0 0.00 0.00 0.00 49 1011.2
20260502055328 52 234 13.0 18.0 0.00 0.00 0.00 50 1011.2
20260502055227 52 312 10.0 18.0 0.00 0.00 0.00 51 1011.2
20260502055127 52 178 11.0 18.0 0.00 0.00 0.00 50 1011.2
20260502055025 52 216 11.0 18.0 0.00 0.00 0.00 50 1011.2
20260502054924 52 49 10.0 18.0 0.00 0.00 0.00 51 1011.2
20260502054823 52 185 7.0 22.0 0.00 0.00 0.00 51 1011.2
20260502054735 52 165 5.0 22.0 0.00 0.00 0.00 51 1011.2
20260502054645 52 274 12.0 22.0 0.00 0.00 0.00 50 1011.2
20260502054526 52 319 11.0 22.0 0.00 0.00 0.00 50 1011.2
20260502054444 52 298 9.0 22.0 0.00 0.00 0.00 50 1011.2
20260502054342 52 313 12.0 22.0 0.00 0.00 0.00 50 1011.1
20260502054242 52 243 11.0 22.0 0.00 0.00 0.00 50 1011.1
20260502054200 52 320 9.0 22.0 0.00 0.00 0.00 51 1011.1
20260502054038 52 229 12.0 22.0 0.00 0.00 0.00 50 1011.1
20260502053936 52 281 10.0 22.0 0.00 0.00 0.00 50 1011.1
20260502053837 52 319 10.0 22.0 0.00 0.00 0.00 50 1011.1
20260502053756 52 305 12.0 22.0 0.00 0.00 0.00 49 1011.1
20260502053633 52 226 16.0 22.0 0.00 0.00 0.00 50 1011.1
20260502053530 52 332 8.0 20.0 0.00 0.00 0.00 49 1011.1
20260502053429 52 263 8.0 20.0 0.00 0.00 0.00 49 1011.1
20260502053328 52 217 14.0 20.0 0.00 0.00 0.00 50 1011.1
20260502053238 52 251 11.0 20.0 0.00 0.00 0.00 48 1011.1
20260502053147 52 318 11.0 20.0 0.00 0.00 0.00 48 1011.1
20260502053029 52 332 12.0 20.0 0.00 0.00 0.00 49 1011.1
20260502052947 53 45 10.0 20.0 0.00 0.00 0.00 49 1011.1
20260502052905 53 311 11.0 20.0 0.00 0.00 0.00 49 1011.3
20260502052742 53 188 14.0 20.0 0.00 0.00 0.00 49 1011.3
20260502052641 53 311 10.0 19.0 0.00 0.00 0.00 49 1011.3
20260502052538 53 227 11.0 20.0 0.00 0.00 0.00 49 1011.3
20260502052437 53 335 10.0 20.0 0.00 0.00 0.00 50 1011.3
20260502052355 53 241 8.0 20.0 0.00 0.00 0.00 49 1011.3
20260502052238 53 158 7.0 20.0 0.00 0.00 0.00 49 1011.3
20260502052157 53 230 8.0 20.0 0.00 0.00 0.00 48 1011.3
20260502052033 53 199 9.0 20.0 0.00 0.00 0.00 48 1011.3
20260502051934 53 289 7.0 20.0 0.00 0.00 0.00 47 1011.3
20260502051832 53 48 14.0 20.0 0.00 0.00 0.00 48 1011.3
20260502051741 53 326 16.0 20.0 0.00 0.00 0.00 47 1011.3
20260502051649 53 176 13.0 20.0 0.00 0.00 0.00 49 1011.3
20260502051527 53 64 10.0 18.0 0.00 0.00 0.00 48 1011.3
20260502051429 53 226 10.0 18.0 0.00 0.00 0.00 47 1011.3
20260502051328 53 110 8.0 18.0 0.00 0.00 0.00 47 1011.1
20260502051225 53 145 10.0 18.0 0.00 0.00 0.00 49 1011.1
20260502051123 53 333 8.0 18.0 0.00 0.00 0.00 49 1011.1
20260502051024 53 265 11.0 18.0 0.00 0.00 0.00 49 1011.1
20260502050943 53 175 9.0 18.0 0.00 0.00 0.00 50 1011.1
20260502050841 53 304 10.0 17.0 0.00 0.00 0.00 48 1011.1
20260502050759 53 195 8.0 17.0 0.00 0.00 0.00 48 1011.1
20260502050659 53 191 7.0 17.0 0.00 0.00 0.00 48 1011.1
20260502050537 53 289 10.0 21.0 0.00 0.00 0.00 48 1011.1
20260502050435 53 61 8.0 21.0 0.00 0.00 0.00 48 1011.1
20260502050335 53 160 8.0 21.0 0.00 0.00 0.00 48 1011.1
20260502050244 53 157 9.0 21.0 0.00 0.00 0.00 48 1011.1
20260502050154 53 332 5.0 21.0 0.00 0.00 0.00 49 1011.1
20260502050050 53 109 8.0 21.0 0.00 0.00 0.00 47 1011.1
20260502045946 53 248 8.0 21.0 0.00 0.00 0.00 47 1011.1
20260502045827 53 278 12.0 21.0 0.00 0.00 0.00 47 1010.9
20260502045745 53 248 15.0 21.0 0.00 0.00 0.00 47 1010.9
20260502045704 53 296 12.0 20.0 0.00 0.00 0.00 47 1010.9
20260502045540 53 335 13.0 20.0 0.00 0.00 0.00 47 1010.9
20260502045458 53 271 14.0 20.0 0.00 0.00 0.00 47 1010.9
20260502045335 53 240 13.0 20.0 0.00 0.00 0.00 47 1010.9
20260502045233 53 233 11.0 19.0 0.00 0.00 0.00 47 1010.9
20260502045130 53 200 12.0 19.0 0.00 0.00 0.00 48 1010.9
20260502045034 53 277 9.0 17.0 0.00 0.00 0.00 48 1010.9
20260502044933 53 320 8.0 17.0 0.00 0.00 0.00 48 1010.9
20260502044831 53 322 11.0 17.0 0.00 0.00 0.00 48 1010.9
20260502044748 53 126 12.0 16.0 0.00 0.00 0.00 48 1010.9
20260502044658 53 240 10.0 17.0 0.00 0.00 0.00 49 1010.9
20260502044535 53 229 7.0 22.0 0.00 0.00 0.00 49 1010.9
20260502044433 53 329 7.0 22.0 0.00 0.00 0.00 49 1010.9
20260502044331 53 322 9.0 22.0 0.00 0.00 0.00 49 1010.9
20260502044254 53 278 7.0 22.0 0.00 0.00 0.00 49 1010.9
20260502044132 53 145 7.0 22.0 0.00 0.00 0.00 48 1010.9
20260502044030 53 229 9.0 22.0 0.00 0.00 0.00 50 1010.9
20260502043928 53 106 10.0 22.0 0.00 0.00 0.00 50 1010.9
20260502043827 53 260 10.0 22.0 0.00 0.00 0.00 50 1010.9
20260502043725 53 208 11.0 22.0 0.00 0.00 0.00 49 1010.9
20260502043643 53 292 12.0 22.0 0.00 0.00 0.00 49 1010.9
20260502043601 53 253 10.0 19.0 0.00 0.00 0.00 49 1010.9
20260502043442 53 313 8.0 19.0 0.00 0.00 0.00 49 1010.9
20260502043341 53 287 9.0 19.0 0.00 0.00 0.00 48 1010.9
20260502043259 53 247 9.0 19.0 0.00 0.00 0.00 47 1010.9
20260502043211 53 311 12.0 19.0 0.00 0.00 0.00 47 1010.9
20260502043108 54 291 13.0 19.0 0.00 0.00 0.00 49 1010.9
20260502043006 54 92 10.0 20.0 0.00 0.00 0.00 49 1010.9
20260502042902 54 147 10.0 20.0 0.00 0.00 0.00 50 1011.0
20260502042740 54 131 14.0 20.0 0.00 0.00 0.00 50 1011.0
20260502042659 54 229 11.0 20.0 0.00 0.00 0.00 50 1011.0
20260502042600 54 299 6.0 20.0 0.00 0.00 0.00 49 1011.0
20260502042440 54 265 9.0 20.0 0.00 0.00 0.00 48 1011.0
20260502042337 54 299 8.0 20.0 0.00 0.00 0.00 49 1011.0
20260502042236 54 281 11.0 20.0 0.00 0.00 0.00 49 1011.0
20260502042154 54 301 14.0 20.0 0.00 0.00 0.00 51 1011.0
20260502042035 54 260 15.0 19.0 0.00 0.00 0.00 49 1011.0
20260502041932 54 275 9.0 17.0 0.00 0.00 0.00 50 1011.0
20260502041832 54 316 10.0 17.0 0.00 0.00 0.00 50 1011.0
20260502041802 54 304 9.0 17.0 0.00 0.00 0.00 50 1011.0
20260502041653 54 296 7.0 19.0 0.00 0.00 0.00 50 1011.0
20260502041531 54 253 11.0 19.0 0.00 0.00 0.00 50 1011.0
20260502041428 54 261 7.0 19.0 0.00 0.00 0.00 50 1011.0
20260502041347 54 254 5.0 19.0 0.00 0.00 0.00 51 1011.1
20260502041228 54 295 8.0 19.0 0.00 0.00 0.00 51 1011.1
20260502041145 54 147 10.0 19.0 0.00 0.00 0.00 51 1011.1
20260502041104 54 206 9.0 19.0 0.00 0.00 0.00 51 1011.1
20260502041002 54 167 8.0 19.0 0.00 0.00 0.00 51 1011.1
20260502040840 54 99 6.0 19.0 0.00 0.00 0.00 51 1011.1
20260502040724 54 268 10.0 19.0 0.00 0.00 0.00 51 1011.1
20260502040642 54 294 9.0 17.0 0.00 0.00 0.00 51 1011.1
20260502040541 54 329 12.0 17.0 0.00 0.00 0.00 50 1011.1
20260502040438 54 203 11.0 17.0 0.00 0.00 0.00 50 1011.1
20260502040336 54 52 9.0 17.0 0.00 0.00 0.00 50 1011.1
20260502040253 54 326 12.0 17.0 0.00 0.00 0.00 50 1011.1
20260502040225 54 253 9.0 20.0 0.00 0.00 0.00 50 1011.1
20260502040041 54 93 8.0 20.0 0.00 0.00 0.00 50 1011.1
20260502035942 54 354 12.0 20.0 0.00 0.00 0.00 50 1011.1
20260502035901 54 316 11.0 20.0 0.00 0.00 0.00 50 1011.0
20260502035758 54 296 9.0 20.0 0.00 0.00 0.00 51 1011.0
20260502035635 54 284 9.0 20.0 0.00 0.00 0.00 50 1011.0
20260502035534 54 199 7.0 20.0 0.00 0.00 0.00 50 1011.0
20260502035433 54 330 10.0 20.0 0.00 0.00 0.00 49 1011.0
20260502035330 54 167 12.0 20.0 0.00 0.00 0.00 49 1011.0
20260502035230 54 200 11.0 20.0 0.00 0.00 0.00 50 1011.0
20260502035133 54 209 10.0 16.0 0.00 0.00 0.00 50 1011.0
20260502035031 54 288 10.0 16.0 0.00 0.00 0.00 50 1011.0
20260502034930 54 305 10.0 16.0 0.00 0.00 0.00 50 1011.0
20260502034827 54 103 10.0 16.0 0.00 0.00 0.00 50 1011.0
20260502034738 54 128 7.0 14.0 0.00 0.00 0.00 51 1011.0
20260502034647 54 332 6.0 14.0 0.00 0.00 0.00 52 1011.0
20260502034545 54 335 9.0 14.0 0.00 0.00 0.00 52 1011.0
20260502034503 54 296 7.0 14.0 0.00 0.00 0.00 51 1011.0
20260502034405 54 178 8.0 14.0 0.00 0.00 0.00 51 1011.2
20260502034242 55 178 9.0 14.0 0.00 0.00 0.00 51 1011.2
20260502034141 55 212 10.0 14.0 0.00 0.00 0.00 52 1011.2
20260502034038 55 209 11.0 14.0 0.00 0.00 0.00 51 1011.2
20260502033935 55 220 9.0 14.0 0.00 0.00 0.00 51 1011.2
20260502033834 55 313 8.0 14.0 0.00 0.00 0.00 51 1011.2
20260502033731 55 216 8.0 14.0 0.00 0.00 0.00 51 1011.2
20260502033653 55 280 5.0 14.0 0.00 0.00 0.00 51 1011.2
20260502033529 55 287 7.0 16.0 0.00 0.00 0.00 52 1011.2
20260502033425 55 301 9.0 16.0 0.00 0.00 0.00 54 1011.2
20260502033343 55 232 7.0 16.0 0.00 0.00 0.00 54 1011.2
20260502033241 55 179 7.0 16.0 0.00 0.00 0.00 54 1011.2
20260502033212 55 58 10.0 16.0 0.00 0.00 0.00 54 1011.2
20260502033027 55 155 5.0 16.0 0.00 0.00 0.00 53 1011.2
20260502032926 55 305 9.0 16.0 0.00 0.00 0.00 53 1011.2
20260502032844 55 285 10.0 16.0 0.00 0.00 0.00 53 1011.6
20260502032726 55 76 11.0 17.0 0.00 0.00 0.00 54 1011.6
20260502032644 55 206 8.0 17.0 0.00 0.00 0.00 54 1011.6
20260502032542 55 280 7.0 17.0 0.00 0.00 0.00 55 1011.6
20260502032439 55 332 9.0 17.0 0.00 0.00 0.00 53 1011.6
20260502032338 55 79 10.0 17.0 0.00 0.00 0.00 53 1011.6
20260502032256 55 353 10.0 17.0 0.00 0.00 0.00 53 1011.6
20260502032133 55 134 5.0 17.0 0.00 0.00 0.00 53 1011.6
20260502032031 55 294 6.0 17.0 0.00 0.00 0.00 53 1011.6
20260502031933 55 325 12.0 17.0 0.00 0.00 0.00 53 1011.6
20260502031852 55 175 11.0 17.0 0.00 0.00 0.00 55 1011.6
20260502031741 55 246 10.0 17.0 0.00 0.00 0.00 55 1011.6
20260502031649 55 328 9.0 17.0 0.00 0.00 0.00 55 1011.6
20260502031526 55 326 8.0 17.0 0.00 0.00 0.00 56 1011.6
20260502031426 55 333 7.0 17.0 0.00 0.00 0.00 56 1011.6
20260502031324 55 332 7.0 18.0 0.00 0.00 0.00 56 1011.7
20260502031243 55 134 8.0 18.0 0.00 0.00 0.00 56 1011.7
20260502031140 55 239 8.0 18.0 0.00 0.00 0.00 56 1011.7
20260502031103 55 329 8.0 18.0 0.00 0.00 0.00 56 1011.7
20260502030940 55 243 7.0 18.0 0.00 0.00 0.00 56 1011.7
20260502030839 55 318 4.0 18.0 0.00 0.00 0.00 55 1011.7
20260502030737 55 239 8.0 18.0 0.00 0.00 0.00 55 1011.7
20260502030634 55 330 10.0 18.0 0.00 0.00 0.00 56 1011.7
20260502030532 56 246 10.0 18.0 0.00 0.00 0.00 57 1011.7
20260502030430 56 176 8.0 18.0 0.00 0.00 0.00 57 1011.7
20260502030333 56 350 9.0 18.0 0.00 0.00 0.00 57 1011.7
20260502030244 56 292 5.0 18.0 0.00 0.00 0.00 56 1011.7
20260502030153 56 313 6.0 18.0 0.00 0.00 0.00 56 1011.7
20260502030030 56 265 4.0 18.0 0.00 0.00 0.00 56 1011.7
20260502025948 56 304 10.0 18.0 0.00 0.00 0.00 57 1011.7
20260502025845 56 325 10.0 18.0 0.00 0.00 0.00 57 1011.7
20260502025803 56 167 9.0 18.0 0.00 0.00 0.00 57 1011.7
20260502025641 56 280 10.0 18.0 0.00 0.00 0.00 57 1011.7
20260502025543 56 56 3.0 12.0 0.00 0.00 0.00 57 1011.7
20260502025441 56 325 6.0 15.0 0.00 0.00 0.00 57 1011.7
20260502025340 56 339 6.0 15.0 0.00 0.00 0.00 57 1011.7
20260502025238 56 333 7.0 15.0 0.00 0.00 0.00 57 1011.7
20260502025137 56 274 9.0 15.0 0.00 0.00 0.00 57 1011.7
20260502025036 56 360 7.0 15.0 0.00 0.00 0.00 59 1011.7
20260502024953 56 332 4.0 15.0 0.00 0.00 0.00 59 1011.7
20260502024835 56 332 7.0 15.0 0.00 0.00 0.00 58 1011.7
20260502024755 56 330 8.0 15.0 0.00 0.00 0.00 58 1011.7
20260502024725 56 248 9.0 15.0 0.00 0.00 0.00 59 1011.7
20260502024542 56 244 5.0 18.0 0.00 0.00 0.00 59 1011.7
20260502024440 56 88 7.0 18.0 0.00 0.00 0.00 59 1011.7
20260502024337 56 329 5.0 18.0 0.00 0.00 0.00 59 1011.3
20260502024257 56 330 6.0 18.0 0.00 0.00 0.00 59 1011.3
20260502024135 56 354 7.0 18.0 0.00 0.00 0.00 59 1011.3
20260502024054 56 330 5.0 18.0 0.00 0.00 0.00 59 1011.3
20260502023938 56 289 7.0 18.0 0.00 0.00 0.00 58 1011.3
20260502023837 56 188 8.0 18.0 0.00 0.00 0.00 58 1011.3
20260502023736 56 332 10.0 18.0 0.00 0.00 0.00 59 1011.3
20260502023633 56 311 5.0 14.0 0.00 0.00 0.00 59 1011.3
20260502023552 56 154 8.0 14.0 0.00 0.00 0.00 59 1011.3
20260502023451 56 243 6.0 14.0 0.00 0.00 0.00 59 1011.3
20260502023333 56 192 8.0 14.0 0.00 0.00 0.00 58 1011.3
20260502023302 57 270 9.0 14.0 0.00 0.00 0.00 58 1011.3
20260502023154 57 256 10.0 14.0 0.00 0.00 0.00 59 1011.3
20260502023030 57 174 5.0 14.0 0.00 0.00 0.00 59 1011.3
20260502022929 57 333 10.0 14.0 0.00 0.00 0.00 59 1011.3
20260502022828 57 196 9.0 14.0 0.00 0.00 0.00 60 1011.1
20260502022725 57 357 4.0 13.0 0.00 0.00 0.00 60 1011.1
20260502022624 57 333 4.0 13.0 0.00 0.00 0.00 60 1011.1
20260502022542 57 335 5.0 13.0 0.00 0.00 0.00 59 1011.1
20260502022444 57 329 6.0 13.0 0.00 0.00 0.00 59 1011.1
20260502022402 57 59 7.0 14.0 0.00 0.00 0.00 59 1011.1
20260502022239 57 107 8.0 17.0 0.00 0.00 0.00 60 1011.1
20260502022138 57 162 7.0 17.0 0.00 0.00 0.00 59 1011.1
20260502022039 57 275 5.0 17.0 0.00 0.00 0.00 59 1011.1
20260502021938 57 168 5.0 17.0 0.00 0.00 0.00 59 1011.1
20260502021835 57 320 8.0 17.0 0.00 0.00 0.00 58 1011.1
20260502021738 57 330 8.0 17.0 0.00 0.00 0.00 59 1011.1
20260502021646 57 193 8.0 17.0 0.00 0.00 0.00 59 1011.1
20260502021543 57 212 8.0 17.0 0.00 0.00 0.00 60 1011.1
20260502021440 57 360 7.0 17.0 0.00 0.00 0.00 60 1011.1
20260502021342 57 306 7.0 17.0 0.00 0.00 0.00 60 1011.0
20260502021240 57 227 5.0 14.0 0.00 0.00 0.00 60 1011.0
20260502021138 57 330 7.0 14.0 0.00 0.00 0.00 60 1011.0
20260502021037 57 160 8.0 14.0 0.00 0.00 0.00 59 1011.0
20260502020939 57 54 7.0 14.0 0.00 0.00 0.00 61 1011.0
20260502020835 57 333 5.0 14.0 0.00 0.00 0.00 61 1011.0
20260502020733 57 148 7.0 14.0 0.00 0.00 0.00 60 1011.0
20260502020653 57 346 8.0 14.0 0.00 0.00 0.00 59 1011.0
20260502020531 57 206 9.0 14.0 0.00 0.00 0.00 59 1011.0
20260502020428 57 330 7.0 14.0 0.00 0.00 0.00 60 1011.0
20260502020328 57 343 4.0 14.0 0.00 0.00 0.00 60 1011.0
20260502020240 57 336 7.0 14.0 0.00 0.00 0.00 59 1011.0
20260502020151 57 51 9.0 14.0 0.00 0.00 0.00 59 1011.0
20260502020028 57 226 9.0 14.0 0.00 0.00 0.00 60 1011.0
20260502015946 57 34 7.0 14.0 0.00 0.00 0.00 61 1011.0
20260502015905 57 192 9.0 14.0 0.00 0.00 0.00 60 1010.8
20260502015735 58 346 8.0 14.0 0.00 0.00 0.00 59 1010.8
20260502015635 58 120 9.0 14.0 0.00 0.00 0.00 62 1010.8
20260502015532 58 145 9.0 14.0 0.00 0.00 0.00 61 1010.8
20260502015436 58 247 10.0 14.0 0.00 0.00 0.00 62 1010.8
20260502015334 58 83 2.0 14.0 0.00 0.00 0.00 62 1010.8
20260502015233 58 330 5.0 14.0 0.00 0.00 0.00 63 1010.8
20260502015152 58 328 7.0 14.0 0.00 0.00 0.00 64 1010.8
20260502015030 58 332 4.0 14.0 0.00 0.00 0.00 64 1010.8
20260502014928 58 356 3.0 14.0 0.00 0.00 0.00 63 1010.8
20260502014826 58 356 6.0 14.0 0.00 0.00 0.00 63 1010.8
20260502014730 58 325 4.0 12.0 0.00 0.00 0.00 64 1010.8
20260502014700 58 203 5.0 12.0 0.00 0.00 0.00 65 1010.8
20260502014535 58 174 5.0 12.0 0.00 0.00 0.00 65 1010.8
20260502014432 58 85 5.0 11.0 0.00 0.00 0.00 65 1010.8
20260502014331 58 260 5.0 11.0 0.00 0.00 0.00 65 1010.9
20260502014230 58 251 3.0 11.0 0.00 0.00 0.00 65 1010.9
20260502014128 58 151 6.0 11.0 0.00 0.00 0.00 66 1010.9
20260502014025 58 73 5.0 11.0 0.00 0.00 0.00 66 1010.9
20260502013931 58 124 4.0 11.0 0.00 0.00 0.00 66 1010.9
20260502013850 58 326 4.0 10.0 0.00 0.00 0.00 65 1010.9
20260502013729 58 332 5.0 8.0 0.00 0.00 0.00 65 1010.9
20260502013626 58 28 4.0 9.0 0.00 0.00 0.00 65 1010.9
20260502013524 58 14 4.0 9.0 0.00 0.00 0.00 65 1010.9
20260502013443 58 116 5.0 9.0 0.00 0.00 0.00 65 1010.9
20260502013342 58 93 5.0 9.0 0.00 0.00 0.00 65 1010.9
20260502013300 58 359 5.0 9.0 0.00 0.00 0.00 65 1010.9
20260502013155 58 128 5.0 9.0 0.00 0.00 0.00 64 1010.9
20260502013051 58 346 5.0 9.0 0.00 0.00 0.00 64 1010.9
20260502012930 58 347 5.0 9.0 0.00 0.00 0.00 64 1010.9
20260502012827 58 72 7.0 11.0 0.00 0.00 0.00 64 1010.8
20260502012745 58 354 6.0 12.0 0.00 0.00 0.00 64 1010.8
20260502012704 58 325 4.0 12.0 0.00 0.00 0.00 64 1010.8
20260502012541 58 332 4.0 12.0 0.00 0.00 0.00 63 1010.8
20260502012439 58 332 4.0 12.0 0.00 0.00 0.00 63 1010.8
20260502012337 58 335 4.0 12.0 0.00 0.00 0.00 62 1010.8
20260502012259 58 325 6.0 12.0 0.00 0.00 0.00 62 1010.8
20260502012155 58 350 6.0 12.0 0.00 0.00 0.00 62 1010.8
20260502012032 58 360 7.0 12.0 0.00 0.00 0.00 62 1010.8
20260502011930 58 357 7.0 12.0 0.00 0.00 0.00 62 1010.8
20260502011830 58 326 4.0 10.0 0.00 0.00 0.00 62 1010.8
20260502011739 58 30 6.0 10.0 0.00 0.00 0.00 61 1010.8
20260502011648 58 344 4.0 10.0 0.00 0.00 0.00 61 1010.8
20260502011525 58 328 7.0 10.0 0.00 0.00 0.00 61 1010.8
20260502011427 58 326 4.0 9.0 0.00 0.00 0.00 61 1010.8
20260502011326 58 346 4.0 9.0 0.00 0.00 0.00 61 1010.7
20260502011244 58 343 4.0 9.0 0.00 0.00 0.00 61 1010.7
20260502011143 58 344 4.0 9.0 0.00 0.00 0.00 61 1010.7
20260502011042 58 328 3.0 9.0 0.00 0.00 0.00 62 1010.7
20260502010940 58 330 4.0 9.0 0.00 0.00 0.00 62 1010.7
20260502010838 58 335 4.0 9.0 0.00 0.00 0.00 62 1010.7
20260502010740 59 330 5.0 9.0 0.00 0.00 0.00 61 1010.7
20260502010658 59 312 5.0 9.0 0.00 0.00 0.00 61 1010.7
20260502010535 59 326 4.0 8.0 0.00 0.00 0.00 61 1010.7
20260502010433 59 330 3.0 8.0 0.00 0.00 0.00 60 1010.7
20260502010331 59 332 2.0 7.0 0.00 0.00 0.00 60 1010.7
20260502010229 59 330 3.0 7.0 0.00 0.00 0.00 60 1010.7
20260502010159 59 340 4.0 7.0 0.00 0.00 0.00 61 1010.7
20260502010040 59 339 3.0 7.0 0.00 0.00 0.00 61 1010.7
20260502005938 59 353 4.0 7.0 0.00 0.00 0.00 61 1010.7
20260502005837 59 352 4.0 7.0 0.00 0.00 0.00 61 1010.6
20260502005735 59 332 3.0 7.0 0.00 0.00 0.00 61 1010.6
20260502005635 59 336 3.0 7.0 0.00 0.00 0.00 61 1010.6
20260502005537 59 349 4.0 7.0 0.00 0.00 0.00 60 1010.6
20260502005435 59 329 4.0 7.0 0.00 0.00 0.00 61 1010.6
20260502005358 59 325 5.0 7.0 0.00 0.00 0.00 61 1010.6
20260502005254 59 343 5.0 7.0 0.00 0.00 0.00 61 1010.6
20260502005153 59 346 3.0 7.0 0.00 0.00 0.00 61 1010.6
20260502005029 59 346 3.0 7.0 0.00 0.00 0.00 61 1010.6
20260502004927 59 339 3.0 7.0 0.00 0.00 0.00 61 1010.6
20260502004826 59 333 5.0 7.0 0.00 0.00 0.00 60 1010.6
20260502004724 59 326 5.0 7.0 0.00 0.00 0.00 62 1010.6
20260502004653 59 325 4.0 7.0 0.00 0.00 0.00 62 1010.6
20260502004534 59 326 2.0 7.0 0.00 0.00 0.00 62 1010.6
20260502004434 59 337 3.0 7.0 0.00 0.00 0.00 61 1010.6
20260502004352 59 330 4.0 7.0 0.00 0.00 0.00 60 1010.0
20260502004230 59 330 4.0 8.0 0.00 0.00 0.00 60 1010.0
20260502004127 59 329 1.0 8.0 0.00 0.00 0.00 60 1010.0
20260502004026 59 349 2.0 8.0 0.00 0.00 0.00 60 1010.0
20260502003945 59 319 2.0 8.0 0.00 0.00 0.00 60 1010.0
20260502003843 59 335 1.0 8.0 0.00 0.00 0.00 60 1010.0
20260502003727 59 330 3.0 8.0 0.00 0.00 0.00 60 1010.0
20260502003645 59 328 3.0 8.0 0.00 0.00 0.00 60 1010.0
20260502003603 59 330 2.0 8.0 0.00 0.00 0.00 61 1010.0
20260502003501 59 328 3.0 8.0 0.00 0.00 0.00 61 1010.0
20260502003337 59 342 3.0 8.0 0.00 0.00 0.00 61 1010.0
20260502003235 59 343 4.0 7.0 0.00 0.00 0.00 60 1010.0
20260502003205 59 339 5.0 7.0 0.00 0.00 0.00 60 1010.0
20260502003041 59 329 5.0 6.0 0.00 0.00 0.00 60 1010.0
20260502002924 59 337 3.0 7.0 0.00 0.00 0.00 60 1010.0
20260502002843 59 347 5.0 7.0 0.00 0.00 0.00 60 1010.0
20260502002802 59 349 3.0 8.0 0.00 0.00 0.00 62 1010.0
20260502002641 59 335 4.0 8.0 0.00 0.00 0.00 62 1010.0
20260502002539 59 343 4.0 8.0 0.00 0.00 0.00 61 1010.0
20260502002437 59 340 3.0 8.0 0.00 0.00 0.00 62 1010.0
20260502002335 59 342 3.0 8.0 0.00 0.00 0.00 62 1010.0
20260502002237 59 335 3.0 8.0 0.00 0.00 0.00 62 1010.0
20260502002156 59 343 4.0 8.0 0.00 0.00 0.00 61 1010.0
20260502002034 59 346 3.0 8.0 0.00 0.00 0.00 61 1010.0
20260502001933 59 336 4.0 8.0 0.00 0.00 0.00 61 1010.0
20260502001831 59 339 3.0 6.0 0.00 0.00 0.00 60 1010.0
20260502001740 59 335 3.0 7.0 0.00 0.00 0.00 60 1010.0
20260502001650 59 326 2.0 7.0 0.00 0.00 0.00 60 1010.0
20260502001528 59 335 3.0 7.0 0.00 0.00 0.00 60 1010.0
20260502001430 59 330 3.0 7.0 0.00 0.00 0.00 60 1010.0
20260502001349 59 330 2.0 7.0 0.00 0.00 0.00 59 1010.0
20260502001227 59 328 4.0 7.0 0.00 0.00 0.00 59 1010.0
20260502001145 59 333 4.0 7.0 0.00 0.00 0.00 59 1010.0
20260502001043 59 329 4.0 7.0 0.00 0.00 0.00 59 1010.0
20260502000942 59 335 5.0 7.0 0.00 0.00 0.00 60 1010.0
20260502000841 59 330 5.0 7.0 0.00 0.00 0.00 60 1010.0
20260502000739 59 330 5.0 7.0 0.00 0.00 0.00 59 1010.0
20260502000641 60 330 4.0 7.0 0.00 0.00 0.00 59 1010.0
20260502000539 60 329 3.0 6.0 0.00 0.00 0.00 59 1010.0
20260502000439 60 336 5.0 6.0 0.00 0.00 0.00 59 1010.0
20260502000335 60 333 5.0 6.0 0.00 0.00 0.00 59 1010.0
20260502000255 60 333 4.0 6.0 0.00 0.00 0.00 59 1010.0
20260502000204 60 329 3.0 6.0 0.00 0.00 0.00 58 1010.0
20260502000039 60 340 3.0 6.0 0.00 0.00 0.00 59 1010.0
20260501235943 60 332 3.0 6.0 0.00 0.00 0.00 58 1010.0
20260501235840 60 337 3.0 6.0 0.00 0.00 0.00 58 1010.0
20260501235738 60 339 3.0 6.0 0.00 0.00 0.00 57 1010.0
20260501235637 60 335 2.0 6.0 0.00 0.00 0.00 57 1010.0
20260501235537 60 336 2.0 6.0 0.00 0.00 0.00 56 1010.0
20260501235455 60 339 3.0 6.0 0.00 0.00 0.00 56 1010.0
20260501235333 60 335 2.0 6.0 0.00 0.00 0.00 57 1010.0
20260501235235 60 292 4.0 6.0 0.00 0.00 0.00 57 1010.0
20260501235153 60 308 4.0 6.0 0.00 0.00 0.00 57 1010.0
20260501235050 60 336 2.0 6.0 0.00 0.00 0.00 57 1010.0
20260501234930 60 333 2.0 6.0 0.00 0.00 0.00 58 1010.0
20260501234830 60 337 1.0 6.0 0.00 0.00 0.00 58 1010.0
20260501234739 60 336 2.0 6.0 0.00 0.00 0.00 58 1010.0
20260501234647 60 339 3.0 6.0 0.00 0.00 0.00 57 1010.0
20260501234524 60 337 4.0 6.0 0.00 0.00 0.00 56 1010.0
20260501234428 60 330 2.0 6.0 0.00 0.00 0.00 57 1010.0
20260501234348 60 337 3.0 6.0 0.00 0.00 0.00 57 1009.6
20260501234305 60 339 4.0 6.0 0.00 0.00 0.00 58 1009.6
20260501234141 60 342 3.0 6.0 0.00 0.00 0.00 58 1009.6
20260501234040 60 342 2.0 6.0 0.00 0.00 0.00 58 1009.6
20260501233939 60 343 4.0 6.0 0.00 0.00 0.00 57 1009.6
20260501233837 60 349 4.0 6.0 0.00 0.00 0.00 57 1009.6
20260501233735 60 349 3.0 6.0 0.00 0.00 0.00 56 1009.6
20260501233637 60 350 2.0 6.0 0.00 0.00 0.00 57 1009.6
20260501233555 60 335 2.0 6.0 0.00 0.00 0.00 57 1009.6
20260501233432 60 330 2.0 6.0 0.00 0.00 0.00 57 1009.6
20260501233331 60 332 1.0 6.0 0.00 0.00 0.00 58 1009.6
20260501233301 60 332 4.0 7.0 0.00 0.00 0.00 58 1009.6
20260501233149 60 340 3.0 7.0 0.00 0.00 0.00 58 1009.6
20260501233027 60 357 1.0 7.0 0.00 0.00 0.00 57 1009.6
20260501232945 60 333 3.0 7.0 0.00 0.00 0.00 57 1009.6
20260501232904 60 360 4.0 7.0 0.00 0.00 0.00 57 1009.8
20260501232726 60 330 3.0 7.0 0.00 0.00 0.00 56 1009.8
20260501232644 60 330 3.0 7.0 0.00 0.00 0.00 56 1009.8
20260501232603 60 360 4.0 7.0 0.00 0.00 0.00 56 1009.8
20260501232441 60 328 3.0 7.0 0.00 0.00 0.00 57 1009.8
20260501232341 60 337 1.0 7.0 0.00 0.00 0.00 57 1009.8
20260501232258 60 336 4.0 7.0 0.00 0.00 0.00 57 1009.8
20260501232135 60 337 2.0 7.0 0.00 0.00 0.00 57 1009.8
20260501232034 60 346 3.0 7.0 0.00 0.00 0.00 57 1009.8
20260501231936 60 349 4.0 7.0 0.00 0.00 0.00 57 1009.8
20260501231732 60 330 2.0 7.0 0.00 0.00 0.00 56 1009.8
20260501231700 60 342 2.0 7.0 0.00 0.00 0.00 56 1009.8
20260501231539 60 344 1.0 7.0 0.00 0.00 0.00 56 1009.8
20260501231458 60 335 1.0 7.0 0.00 0.00 0.00 57 1009.8
20260501231355 60 340 3.0 7.0 0.00 0.00 0.00 57 1009.8
20260501231233 60 342 6.0 7.0 0.00 0.00 0.00 56 1009.8
20260501231135 60 337 4.0 7.0 0.00 0.00 0.00 56 1009.8
20260501231034 60 325 2.0 7.0 0.00 0.00 0.00 56 1009.8
20260501230932 60 339 4.0 7.0 0.00 0.00 0.00 56 1009.8
20260501230830 60 337 4.0 7.0 0.00 0.00 0.00 56 1009.8
20260501230730 61 339 3.0 7.0 0.00 0.00 0.00 56 1009.8
20260501230630 61 337 4.0 7.0 0.00 0.00 0.00 56 1009.8
20260501230531 61 333 4.0 7.0 0.00 0.00 0.00 56 1009.8
20260501230429 61 342 3.0 6.0 0.00 0.00 0.00 57 1009.8
20260501230328 61 329 1.0 6.0 0.00 0.00 0.00 57 1009.8
20260501230239 61 337 2.0 6.0 0.00 0.00 0.00 58 1009.8
20260501230148 61 342 2.0 6.0 0.00 0.00 0.00 57 1009.8
20260501230024 61 340 2.0 6.0 0.00 0.00 0.00 57 1009.8
20260501225943 61 340 2.0 6.0 0.00 0.00 0.00 57 1009.8
20260501225841 61 342 3.0 7.0 0.00 0.00 0.00 57 1009.8
20260501225804 61 330 3.0 7.0 0.00 0.00 0.00 57 1009.8
20260501225640 61 333 2.0 7.0 0.00 0.00 0.00 57 1009.8
20260501225540 61 333 2.0 7.0 0.00 0.00 0.00 56 1009.8
20260501225439 61 326 1.0 7.0 0.00 0.00 0.00 56 1009.8
20260501225337 61 335 2.0 7.0 0.00 0.00 0.00 57 1009.8
20260501225233 61 336 3.0 7.0 0.00 0.00 0.00 57 1009.8
20260501225152 61 335 4.0 7.0 0.00 0.00 0.00 56 1009.8
20260501225028 61 337 4.0 7.0 0.00 0.00 0.00 56 1009.8
20260501224931 61 336 5.0 7.0 0.00 0.00 0.00 56 1009.8
20260501224829 61 346 1.0 5.0 0.00 0.00 0.00 56 1009.8
20260501224738 61 346 2.0 5.0 0.00 0.00 0.00 56 1009.8
20260501224648 61 347 2.0 5.0 0.00 0.00 0.00 55 1009.8
20260501224545 61 349 1.0 5.0 0.00 0.00 0.00 56 1009.8
20260501224503 61 330 1.0 6.0 0.00 0.00 0.00 54 1009.8
20260501224340 61 347 2.0 6.0 0.00 0.00 0.00 55 1009.5
20260501224240 61 337 2.0 6.0 0.00 0.00 0.00 55 1009.5
20260501224142 61 330 2.0 6.0 0.00 0.00 0.00 55 1009.5
20260501224100 61 344 3.0 6.0 0.00 0.00 0.00 56 1009.5
20260501223958 61 350 3.0 6.0 0.00 0.00 0.00 55 1009.5
20260501223835 61 347 2.0 6.0 0.00 0.00 0.00 55 1009.5
20260501223734 61 350 1.0 6.0 0.00 0.00 0.00 54 1009.5
20260501223631 61 336 5.0 6.0 0.00 0.00 0.00 55 1009.5
20260501223529 61 335 2.0 5.0 0.00 0.00 0.00 56 1009.5
20260501223432 61 347 1.0 6.0 0.00 0.00 0.00 56 1009.5
20260501223332 61 340 1.0 6.0 0.00 0.00 0.00 56 1009.5
20260501223302 61 347 1.0 6.0 0.00 0.00 0.00 56 1009.5
20260501223150 61 344 2.0 6.0 0.00 0.00 0.00 55 1009.5
20260501223027 61 349 2.0 6.0 0.00 0.00 0.00 54 1009.5
20260501222944 61 347 2.0 6.0 0.00 0.00 0.00 54 1009.5
20260501222903 61 329 2.0 6.0 0.00 0.00 0.00 54 1009.0
20260501222739 61 349 2.0 6.0 0.00 0.00 0.00 54 1009.0
20260501222658 62 329 3.0 6.0 0.00 0.00 0.00 55 1009.0
20260501222539 62 342 3.0 6.0 0.00 0.00 0.00 56 1009.0
20260501222438 62 350 3.0 4.0 0.00 0.00 0.00 56 1009.0
20260501222336 62 349 2.0 3.0 0.00 0.00 0.00 56 1009.0
20260501222255 62 346 1.0 4.0 0.00 0.00 0.00 56 1009.0
20260501222153 62 349 2.0 4.0 0.00 0.00 0.00 56 1009.0
20260501222029 62 349 1.0 5.0 0.00 0.00 0.00 57 1009.0
20260501221928 62 346 1.0 7.0 0.00 0.00 0.00 56 1009.0
20260501221826 62 347 0.0 7.0 0.00 0.00 0.00 56 1009.0
20260501221728 62 349 1.0 7.0 0.00 0.00 0.00 55 1009.0
20260501221656 62 347 0.0 7.0 0.00 0.00 0.00 54 1009.0
20260501221534 62 349 0.0 7.0 0.00 0.00 0.00 53 1009.0
20260501221432 62 350 2.0 9.0 0.00 0.00 0.00 52 1009.0
20260501221330 62 350 2.0 9.0 0.00 0.00 0.00 53 1009.2
20260501221229 62 343 2.0 9.0 0.00 0.00 0.00 53 1009.2
20260501221126 62 335 4.0 9.0 0.00 0.00 0.00 52 1009.2
20260501221028 62 352 2.0 9.0 0.00 0.00 0.00 52 1009.2
20260501220948 62 352 5.0 9.0 0.00 0.00 0.00 52 1009.2
20260501220825 62 346 4.0 9.0 0.00 0.00 0.00 52 1009.2
20260501220742 62 335 4.0 9.0 0.00 0.00 0.00 54 1009.2
20260501220640 62 329 4.0 9.0 0.00 0.00 0.00 53 1009.2
20260501220539 62 330 4.0 8.0 0.00 0.00 0.00 53 1009.2
20260501220436 62 328 5.0 9.0 0.00 0.00 0.00 53 1009.2
20260501220339 62 332 5.0 9.0 0.00 0.00 0.00 52 1009.2
20260501220258 62 332 5.0 9.0 0.00 0.00 0.00 52 1009.2
20260501220146 62 329 3.0 9.0 0.00 0.00 0.00 54 1009.2
20260501220042 62 332 5.0 9.0 0.00 0.00 0.00 55 1009.2
20260501215940 62 322 5.0 9.0 0.00 0.00 0.00 55 1009.2
20260501215840 62 320 5.0 9.0 0.00 0.00 0.00 54 1009.1
20260501215741 62 335 4.0 9.0 0.00 0.00 0.00 53 1009.1
20260501215700 62 319 5.0 9.0 0.00 0.00 0.00 52 1009.1
20260501215536 62 344 7.0 9.0 0.00 0.00 0.00 53 1009.1
20260501215438 62 328 4.0 8.0 0.00 0.00 0.00 55 1009.1
20260501215336 62 344 2.0 8.0 0.00 0.00 0.00 53 1009.1
20260501215234 62 319 3.0 8.0 0.00 0.00 0.00 52 1009.1
20260501215153 62 329 4.0 8.0 0.00 0.00 0.00 53 1009.1
20260501215034 62 344 3.0 9.0 0.00 0.00 0.00 53 1009.1
20260501214931 62 343 7.0 9.0 0.00 0.00 0.00 53 1009.1
20260501214850 62 323 5.0 9.0 0.00 0.00 0.00 52 1009.1
20260501214748 62 337 2.0 9.0 0.00 0.00 0.00 52 1009.1
20260501214718 62 328 1.0 9.0 0.00 0.00 0.00 54 1009.1
20260501214539 62 332 0.0 9.0 0.00 0.00 0.00 53 1009.1
20260501214438 62 329 1.0 9.0 0.00 0.00 0.00 53 1009.1
20260501214335 62 346 4.0 9.0 0.00 0.00 0.00 54 1009.2
20260501214234 62 344 5.0 9.0 0.00 0.00 0.00 53 1009.2
20260501214133 62 332 5.0 9.0 0.00 0.00 0.00 53 1009.2
20260501214031 62 332 4.0 9.0 0.00 0.00 0.00 53 1009.2
20260501213932 62 328 4.0 9.0 0.00 0.00 0.00 53 1009.2
20260501213830 62 326 2.0 8.0 0.00 0.00 0.00 53 1009.2
20260501213729 62 352 1.0 8.0 0.00 0.00 0.00 53 1009.2
20260501213627 62 347 1.0 8.0 0.00 0.00 0.00 52 1009.2
20260501213526 62 349 2.0 8.0 0.00 0.00 0.00 52 1009.2
20260501213424 62 330 6.0 8.0 0.00 0.00 0.00 51 1009.2
20260501213343 62 330 7.0 8.0 0.00 0.00 0.00 50 1009.2
20260501213237 62 340 1.0 7.0 0.00 0.00 0.00 53 1009.2
20260501213147 62 264 1.0 7.0 0.00 0.00 0.00 52 1009.2
20260501213024 62 295 4.0 7.0 0.00 0.00 0.00 50 1009.2
20260501212942 62 90 5.0 7.0 0.00 0.00 0.00 53 1009.2
20260501212841 62 127 4.0 7.0 0.00 0.00 0.00 53 1009.6
20260501212741 62 31 5.0 7.0 0.00 0.00 0.00 55 1009.6
20260501212639 62 332 4.0 7.0 0.00 0.00 0.00 55 1009.6
20260501212541 62 329 2.0 7.0 0.00 0.00 0.00 55 1009.6
20260501212440 62 328 2.0 7.0 0.00 0.00 0.00 53 1009.6
20260501212338 62 349 1.0 7.0 0.00 0.00 0.00 52 1009.6
20260501212237 62 332 3.0 7.0 0.00 0.00 0.00 52 1009.6
20260501212136 62 349 4.0 7.0 0.00 0.00 0.00 53 1009.6
20260501212053 62 330 3.0 7.0 0.00 0.00 0.00 53 1009.6
20260501211932 62 330 4.0 7.0 0.00 0.00 0.00 52 1009.6
20260501211850 62 330 5.0 10.0 0.00 0.00 0.00 53 1009.6
20260501211753 62 346 5.0 10.0 0.00 0.00 0.00 51 1009.6
20260501211722 62 97 4.0 10.0 0.00 0.00 0.00 50 1009.6
20260501211539 62 325 5.0 10.0 0.00 0.00 0.00 53 1009.6
20260501211438 62 328 3.0 10.0 0.00 0.00 0.00 54 1009.6
20260501211358 62 329 1.0 10.0 0.00 0.00 0.00 53 1009.8
20260501211235 62 330 2.0 10.0 0.00 0.00 0.00 53 1009.8
20260501211133 62 333 2.0 10.0 0.00 0.00 0.00 51 1009.8
20260501211032 62 329 6.0 10.0 0.00 0.00 0.00 54 1009.8
20260501210933 62 332 6.0 10.0 0.00 0.00 0.00 53 1009.8
20260501210852 62 330 3.0 7.0 0.00 0.00 0.00 53 1009.8
20260501210731 61 333 1.0 8.0 0.00 0.00 0.00 51 1009.8
20260501210628 61 335 4.0 8.0 0.00 0.00 0.00 53 1009.8
20260501210547 61 337 2.0 8.0 0.00 0.00 0.00 51 1009.8
20260501210424 61 336 5.0 8.0 0.00 0.00 0.00 51 1009.8
20260501210342 61 326 4.0 8.0 0.00 0.00 0.00 54 1009.8
20260501210225 61 326 2.0 8.0 0.00 0.00 0.00 53 1009.8
20260501210155 61 326 4.0 8.0 0.00 0.00 0.00 53 1009.8
20260501210031 61 328 5.0 8.0 0.00 0.00 0.00 52 1009.8
20260501205930 61 328 6.0 8.0 0.00 0.00 0.00 52 1009.8
20260501205828 61 323 5.0 8.0 0.00 0.00 0.00 55 1010.2
20260501205727 61 323 3.0 7.0 0.00 0.00 0.00 53 1010.2
20260501205644 61 319 2.0 6.0 0.00 0.00 0.00 53 1010.2
20260501205525 61 329 3.0 6.0 0.00 0.00 0.00 56 1010.2
20260501205424 61 328 1.0 6.0 0.00 0.00 0.00 57 1010.2
20260501205343 61 323 2.0 6.0 0.00 0.00 0.00 57 1010.2
20260501205243 61 323 1.0 7.0 0.00 0.00 0.00 56 1010.2
20260501205200 61 326 0.0 7.0 0.00 0.00 0.00 55 1010.2
20260501205058 61 326 1.0 7.0 0.00 0.00 0.00 54 1010.2
20260501204936 61 320 2.0 7.0 0.00 0.00 0.00 53 1010.2
20260501204833 61 330 0.0 7.0 0.00 0.00 0.00 53 1010.2
20260501204743 61 325 1.0 7.0 0.00 0.00 0.00 52 1010.2
20260501204656 61 323 3.0 7.0 0.00 0.00 0.00 53 1010.2
20260501204553 61 325 5.0 7.0 0.00 0.00 0.00 56 1010.2
20260501204430 61 326 5.0 7.0 0.00 0.00 0.00 56 1010.2
20260501204329 61 326 4.0 5.0 0.00 0.00 0.00 55 1010.5
20260501204247 61 319 2.0 5.0 0.00 0.00 0.00 54 1010.5
20260501204143 61 326 2.0 7.0 0.00 0.00 0.00 54 1010.5
20260501204042 61 322 1.0 7.0 0.00 0.00 0.00 56 1010.5
20260501203941 61 319 1.0 7.0 0.00 0.00 0.00 55 1010.5
20260501203842 61 325 2.0 7.0 0.00 0.00 0.00 55 1010.5
20260501203741 61 320 3.0 7.0 0.00 0.00 0.00 54 1010.5
20260501203659 61 323 3.0 7.0 0.00 0.00 0.00 54 1010.5
20260501203557 61 322 2.0 7.0 0.00 0.00 0.00 52 1010.5
20260501203436 61 311 3.0 7.0 0.00 0.00 0.00 54 1010.5
20260501203333 61 328 6.0 7.0 0.00 0.00 0.00 55 1010.5
20260501203244 61 326 5.0 7.0 0.00 0.00 0.00 56 1010.5
20260501203155 61 333 3.0 6.0 0.00 0.00 0.00 55 1010.5
20260501203036 61 325 2.0 4.0 0.00 0.00 0.00 55 1010.5
20260501202934 61 332 2.0 4.0 0.00 0.00 0.00 55 1010.5
20260501202832 61 332 1.0 3.0 0.00 0.00 0.00 53 1010.9
20260501202731 61 329 1.0 3.0 0.00 0.00 0.00 56 1010.9
20260501202628 61 333 0.0 5.0 0.00 0.00 0.00 55 1010.9
20260501202548 61 325 1.0 5.0 0.00 0.00 0.00 56 1010.9
20260501202445 61 329 1.0 5.0 0.00 0.00 0.00 57 1010.9
20260501202404 61 329 1.0 5.0 0.00 0.00 0.00 58 1010.9
20260501202225 61 336 0.0 6.0 0.00 0.00 0.00 55 1010.9
20260501202144 61 335 1.0 6.0 0.00 0.00 0.00 55 1010.9
20260501202043 61 326 1.0 6.0 0.00 0.00 0.00 55 1010.9
20260501202003 61 329 1.0 6.0 0.00 0.00 0.00 53 1010.9
20260501201901 61 333 3.0 6.0 0.00 0.00 0.00 53 1010.9
20260501201738 61 326 3.0 6.0 0.00 0.00 0.00 52 1010.9
20260501201708 61 330 2.0 6.0 0.00 0.00 0.00 53 1010.9
20260501201543 61 336 3.0 6.0 0.00 0.00 0.00 55 1010.9
20260501201441 61 332 5.0 6.0 0.00 0.00 0.00 55 1010.9
20260501201324 61 330 1.0 5.0 0.00 0.00 0.00 56 1011.1
20260501201242 61 329 2.0 5.0 0.00 0.00 0.00 56 1011.1
20260501201141 61 335 1.0 5.0 0.00 0.00 0.00 56 1011.1
20260501201058 61 330 1.0 5.0 0.00 0.00 0.00 55 1011.1
20260501200935 61 336 2.0 5.0 0.00 0.00 0.00 56 1011.1
20260501200835 61 333 0.0 7.0 0.00 0.00 0.00 56 1011.1
20260501200735 61 325 2.0 7.0 0.00 0.00 0.00 55 1011.1
20260501200637 61 329 2.0 7.0 0.00 0.00 0.00 55 1011.1
20260501200535 61 332 2.0 7.0 0.00 0.00 0.00 54 1011.1
20260501200434 61 336 3.0 7.0 0.00 0.00 0.00 55 1011.1
20260501200353 61 337 4.0 7.0 0.00 0.00 0.00 53 1011.1
20260501200251 61 330 1.0 7.0 0.00 0.00 0.00 54 1011.1
20260501200222 61 330 1.0 7.0 0.00 0.00 0.00 53 1011.1
20260501200037 61 337 4.0 7.0 0.00 0.00 0.00 55 1011.1
20260501195935 61 340 6.0 7.0 0.00 0.00 0.00 55 1011.1
20260501195838 61 332 2.0 7.0 0.00 0.00 0.00 56 1011.6
20260501195736 61 330 1.0 7.0 0.00 0.00 0.00 56 1011.6
20260501195636 61 332 1.0 7.0 0.00 0.00 0.00 53 1011.6
20260501195534 61 322 1.0 7.0 0.00 0.00 0.00 53 1011.6
20260501195432 61 325 0.0 7.0 0.00 0.00 0.00 53 1011.6
20260501195354 61 330 1.0 7.0 0.00 0.00 0.00 53 1011.6
20260501195230 61 328 6.0 7.0 0.00 0.00 0.00 55 1011.6
20260501195133 61 322 5.0 7.0 0.00 0.00 0.00 54 1011.6
20260501195051 61 322 3.0 7.0 0.00 0.00 0.00 53 1011.6
20260501194929 61 325 3.0 7.0 0.00 0.00 0.00 54 1011.6
20260501194827 61 340 1.0 7.0 0.00 0.00 0.00 53 1011.6
20260501194737 61 328 1.0 7.0 0.00 0.00 0.00 51 1011.6
20260501194647 61 323 4.0 7.0 0.00 0.00 0.00 54 1011.6
20260501194525 61 335 1.0 8.0 0.00 0.00 0.00 51 1011.6
20260501194424 61 329 1.0 8.0 0.00 0.00 0.00 50 1011.6
20260501194326 61 328 2.0 8.0 0.00 0.00 0.00 53 1011.6
20260501194224 61 326 3.0 8.0 0.00 0.00 0.00 53 1011.6
20260501194143 61 325 3.0 8.0 0.00 0.00 0.00 53 1011.6
20260501194041 61 342 3.0 8.0 0.00 0.00 0.00 53 1011.6
20260501194000 61 328 3.0 8.0 0.00 0.00 0.00 53 1011.6
20260501193839 61 343 3.0 8.0 0.00 0.00 0.00 53 1011.6
20260501193757 61 337 4.0 8.0 0.00 0.00 0.00 53 1011.6
20260501193636 61 344 6.0 8.0 0.00 0.00 0.00 54 1011.6
20260501193540 61 330 5.0 8.0 0.00 0.00 0.00 53 1011.6
20260501193437 61 322 1.0 10.0 0.00 0.00 0.00 54 1011.6
20260501193336 61 330 2.0 11.0 0.00 0.00 0.00 53 1011.6
20260501193234 61 337 1.0 11.0 0.00 0.00 0.00 52 1011.6
20260501193204 61 339 3.0 11.0 0.00 0.00 0.00 52 1011.6
20260501193040 61 330 4.0 11.0 0.00 0.00 0.00 49 1011.6
20260501193000 61 61 3.0 11.0 0.00 0.00 0.00 49 1011.6
20260501192842 61 134 2.0 11.0 0.00 0.00 0.00 49 1011.7
20260501192741 61 69 3.0 11.0 0.00 0.00 0.00 49 1011.7
20260501192640 61 97 5.0 11.0 0.00 0.00 0.00 51 1011.7
20260501192538 61 236 6.0 11.0 0.00 0.00 0.00 52 1011.7
20260501192436 61 329 4.0 7.0 0.00 0.00 0.00 53 1011.7
20260501192334 61 332 3.0 8.0 0.00 0.00 0.00 52 1011.7
20260501192233 61 356 1.0 8.0 0.00 0.00 0.00 53 1011.7
20260501192135 60 332 2.0 8.0 0.00 0.00 0.00 51 1011.7
20260501192053 60 360 3.0 8.0 0.00 0.00 0.00 52 1011.7
20260501191950 60 340 1.0 8.0 0.00 0.00 0.00 54 1011.7
20260501191828 60 337 0.0 8.0 0.00 0.00 0.00 54 1011.7
20260501191739 60 335 2.0 8.0 0.00 0.00 0.00 53 1011.7
20260501191648 60 335 5.0 8.0 0.00 0.00 0.00 54 1011.7
20260501191525 60 328 4.0 8.0 0.00 0.00 0.00 51 1011.7
20260501191443 60 328 3.0 8.0 0.00 0.00 0.00 51 1011.7
20260501191346 60 343 6.0 8.0 0.00 0.00 0.00 51 1011.7
20260501191243 60 332 5.0 8.0 0.00 0.00 0.00 51 1011.7
20260501191141 60 330 6.0 8.0 0.00 0.00 0.00 53 1011.7
20260501191040 60 339 4.0 8.0 0.00 0.00 0.00 54 1011.7
20260501190937 60 328 2.0 6.0 0.00 0.00 0.00 53 1011.7
20260501190836 60 320 1.0 6.0 0.00 0.00 0.00 53 1011.7
20260501190734 60 330 3.0 6.0 0.00 0.00 0.00 51 1011.7
20260501190631 60 110 3.0 6.0 0.00 0.00 0.00 51 1011.7
20260501190534 60 64 5.0 6.0 0.00 0.00 0.00 52 1011.7
20260501190433 60 143 3.0 6.0 0.00 0.00 0.00 51 1011.7
20260501190331 60 25 3.0 6.0 0.00 0.00 0.00 53 1011.7
20260501190239 60 330 4.0 10.0 0.00 0.00 0.00 55 1011.7
20260501190148 60 329 3.0 10.0 0.00 0.00 0.00 55 1011.7
20260501190025 60 330 0.0 10.0 0.00 0.00 0.00 54 1011.7
20260501185943 60 332 2.0 10.0 0.00 0.00 0.00 54 1011.7
20260501185902 60 329 3.0 10.0 0.00 0.00 0.00 55 1011.7
20260501185803 60 330 3.0 10.0 0.00 0.00 0.00 53 1011.7
20260501185640 60 330 4.0 10.0 0.00 0.00 0.00 53 1011.7
20260501185539 60 106 5.0 10.0 0.00 0.00 0.00 54 1011.7
20260501185457 60 349 5.0 10.0 0.00 0.00 0.00 56 1011.7
20260501185335 60 329 3.0 8.0 0.00 0.00 0.00 54 1011.7
20260501185233 60 61 5.0 8.0 0.00 0.00 0.00 55 1011.7
20260501185132 60 330 4.0 11.0 0.00 0.00 0.00 56 1011.7
20260501185033 60 302 5.0 11.0 0.00 0.00 0.00 55 1011.7
20260501184931 60 148 2.0 11.0 0.00 0.00 0.00 56 1011.7
20260501184829 60 140 5.0 11.0 0.00 0.00 0.00 55 1011.7
20260501184738 60 336 3.0 11.0 0.00 0.00 0.00 55 1011.7
20260501184648 60 340 2.0 11.0 0.00 0.00 0.00 55 1011.7
20260501184525 60 340 4.0 11.0 0.00 0.00 0.00 52 1011.7
20260501184445 60 344 6.0 11.0 0.00 0.00 0.00 53 1011.7
20260501184404 60 309 7.0 11.0 0.00 0.00 0.00 53 1011.6
20260501184225 60 326 5.0 10.0 0.00 0.00 0.00 55 1011.6
20260501184143 60 337 3.0 10.0 0.00 0.00 0.00 55 1011.6
20260501184041 60 336 2.0 10.0 0.00 0.00 0.00 56 1011.6
20260501184000 60 323 3.0 10.0 0.00 0.00 0.00 56 1011.6
20260501183838 60 326 6.0 10.0 0.00 0.00 0.00 56 1011.6
20260501183756 60 291 4.0 11.0 0.00 0.00 0.00 57 1011.6
20260501183653 60 336 6.0 11.0 0.00 0.00 0.00 56 1011.6
20260501183531 60 350 3.0 11.0 0.00 0.00 0.00 55 1011.6
20260501183449 60 340 4.0 11.0 0.00 0.00 0.00 56 1011.6
20260501183330 60 346 5.0 11.0 0.00 0.00 0.00 59 1011.6
20260501183249 60 354 3.0 11.0 0.00 0.00 0.00 59 1011.6
20260501183221 60 333 1.0 11.0 0.00 0.00 0.00 56 1011.6
20260501183037 60 346 3.0 11.0 0.00 0.00 0.00 56 1011.6
20260501182934 60 342 8.0 11.0 0.00 0.00 0.00 57 1011.6
20260501182854 60 339 7.0 10.0 0.00 0.00 0.00 56 1011.3
20260501182751 60 337 7.0 12.0 0.00 0.00 0.00 57 1011.3
20260501182628 60 343 3.0 12.0 0.00 0.00 0.00 57 1011.3
20260501182526 59 349 4.0 12.0 0.00 0.00 0.00 56 1011.3
20260501182427 59 346 5.0 12.0 0.00 0.00 0.00 55 1011.3
20260501182326 59 359 5.0 12.0 0.00 0.00 0.00 56 1011.3
20260501182224 59 330 4.0 12.0 0.00 0.00 0.00 56 1011.3
20260501182142 59 333 5.0 12.0 0.00 0.00 0.00 56 1011.3
20260501182041 59 316 6.0 12.0 0.00 0.00 0.00 58 1011.3
20260501181939 59 73 7.0 12.0 0.00 0.00 0.00 58 1011.3
20260501181837 59 353 3.0 7.0 0.00 0.00 0.00 59 1011.3
20260501181740 59 350 2.0 7.0 0.00 0.00 0.00 59 1011.3
20260501181710 59 353 5.0 8.0 0.00 0.00 0.00 59 1011.3
20260501181527 59 356 4.0 8.0 0.00 0.00 0.00 57 1011.3
20260501181444 59 356 4.0 8.0 0.00 0.00 0.00 56 1011.3
20260501181402 59 353 4.0 8.0 0.00 0.00 0.00 56 1011.3
20260501181240 59 353 5.0 8.0 0.00 0.00 0.00 58 1011.3
20260501181138 59 37 3.0 8.0 0.00 0.00 0.00 58 1011.3
20260501181035 59 21 4.0 8.0 0.00 0.00 0.00 57 1011.3
20260501180939 59 233 4.0 8.0 0.00 0.00 0.00 57 1011.3
20260501180836 59 82 6.0 8.0 0.00 0.00 0.00 57 1011.3
20260501180734 59 328 6.0 8.0 0.00 0.00 0.00 55 1011.3
20260501180633 59 66 6.0 8.0 0.00 0.00 0.00 56 1011.3
20260501180530 59 106 6.0 9.0 0.00 0.00 0.00 55 1011.3
20260501180451 59 143 5.0 9.0 0.00 0.00 0.00 56 1011.3
20260501180328 59 65 5.0 9.0 0.00 0.00 0.00 56 1011.3
20260501180257 59 148 7.0 9.0 0.00 0.00 0.00 56 1011.3
20260501180146 59 330 1.0 9.0 0.00 0.00 0.00 57 1011.3
20260501180028 59 332 0.0 9.0 0.00 0.00 0.00 59 1011.3
20260501175946 59 332 3.0 9.0 0.00 0.00 0.00 59 1011.3
20260501175843 59 340 6.0 9.0 0.00 0.00 0.00 58 1011.6
20260501175741 59 51 5.0 9.0 0.00 0.00 0.00 57 1011.6
20260501175640 59 343 4.0 9.0 0.00 0.00 0.00 56 1011.6
20260501175558 59 234 1.0 7.0 0.00 0.00 0.00 55 1011.6
20260501175435 59 162 3.0 11.0 0.00 0.00 0.00 54 1011.6
20260501175337 59 304 4.0 11.0 0.00 0.00 0.00 54 1011.6
20260501175238 59 78 6.0 11.0 0.00 0.00 0.00 55 1011.6
20260501175139 59 212 5.0 12.0 0.00 0.00 0.00 58 1011.6
20260501175037 59 167 3.0 12.0 0.00 0.00 0.00 56 1011.6
20260501174935 59 343 4.0 12.0 0.00 0.00 0.00 54 1011.6
20260501174834 59 144 5.0 12.0 0.00 0.00 0.00 53 1011.6
20260501174752 59 359 5.0 12.0 0.00 0.00 0.00 53 1011.6
20260501174721 59 320 6.0 12.0 0.00 0.00 0.00 55 1011.6
20260501174538 59 354 7.0 12.0 0.00 0.00 0.00 55 1011.6
20260501174440 59 325 4.0 12.0 0.00 0.00 0.00 54 1011.6
20260501174339 59 330 7.0 12.0 0.00 0.00 0.00 53 1011.9
20260501174237 59 154 6.0 12.0 0.00 0.00 0.00 56 1011.9
20260501174155 59 88 7.0 11.0 0.00 0.00 0.00 57 1011.9
20260501174032 59 354 8.0 11.0 0.00 0.00 0.00 57 1011.9
20260501173951 59 100 4.0 8.0 0.00 0.00 0.00 59 1011.9
20260501173828 59 196 4.0 8.0 0.00 0.00 0.00 59 1011.9
20260501173729 59 65 2.0 8.0 0.00 0.00 0.00 58 1011.9
20260501173628 59 189 5.0 8.0 0.00 0.00 0.00 59 1011.9
20260501173527 59 68 5.0 8.0 0.00 0.00 0.00 59 1011.9
20260501173426 59 65 1.0 8.0 0.00 0.00 0.00 60 1011.9
20260501173326 59 86 1.0 8.0 0.00 0.00 0.00 59 1011.9
20260501173243 59 130 3.0 9.0 0.00 0.00 0.00 59 1011.9
20260501173215 59 350 4.0 9.0 0.00 0.00 0.00 57 1011.9
20260501173031 59 56 6.0 9.0 0.00 0.00 0.00 57 1011.9
20260501172935 59 349 4.0 9.0 0.00 0.00 0.00 57 1011.9
20260501172853 59 174 1.0 11.0 0.00 0.00 0.00 58 1012.2
20260501172730 59 133 3.0 12.0 0.00 0.00 0.00 59 1012.2
20260501172630 59 335 3.0 12.0 0.00 0.00 0.00 58 1012.2
20260501172530 59 339 1.0 12.0 0.00 0.00 0.00 58 1012.2
20260501172426 59 347 6.0 12.0 0.00 0.00 0.00 57 1012.2
20260501172344 59 336 3.0 12.0 0.00 0.00 0.00 57 1012.2
20260501172227 59 347 2.0 12.0 0.00 0.00 0.00 57 1012.2
20260501172146 59 339 6.0 12.0 0.00 0.00 0.00 56 1012.2
20260501172027 59 349 7.0 12.0 0.00 0.00 0.00 56 1012.2
20260501171924 59 349 7.0 12.0 0.00 0.00 0.00 57 1012.2
20260501171844 59 323 6.0 12.0 0.00 0.00 0.00 58 1012.2
20260501171741 59 322 3.0 12.0 0.00 0.00 0.00 57 1012.2
20260501171710 59 337 1.0 12.0 0.00 0.00 0.00 57 1012.2
20260501171546 59 340 0.0 12.0 0.00 0.00 0.00 58 1012.2
20260501171424 59 340 4.0 12.0 0.00 0.00 0.00 57 1012.2
20260501171347 59 335 3.0 12.0 0.00 0.00 0.00 56 1012.0
20260501171305 59 14 4.0 12.0 0.00 0.00 0.00 56 1012.0
20260501171142 59 349 6.0 12.0 0.00 0.00 0.00 56 1012.0